When you browse on this site, cookies collect data to enhance your experience and personalize the content and advertising you see.
Visit our Privacy Policy to learn more. By continuing to use the site, you agree to this use of cookies and data.
  • In Austria
  • List of Countries
  • For 7 days
  • Water Temperature
  • Satellite Maps
  • Weather Map
  • News
  • Weather Widgets
  • user-avatar
    Login

    Hourly Weather Sun City

    Today, 22 July, Monday

    Time Temperature Precipitation Wind Pressure Humidity
    00:00 +36°C° 0 mm 5 mps 730 mmHg 37%
    01:00 +35°C° 0 mm 5 mps 730 mmHg 40%
    02:00 +34°C° 0 mm 4 mps 730 mmHg 44%
    03:00 +34°C° 0 mm 4 mps 730 mmHg 45%
    04:00 +33°C° 0 mm 3 mps 730 mmHg 47%
    05:00 +32°C° 0 mm 2 mps 730 mmHg 48%
    06:00 +32°C° 0 mm 2 mps 731 mmHg 46%
    07:00 +34°C° 0 mm 2 mps 731 mmHg 44%
    08:00 +35°C° 0 mm 2 mps 731 mmHg 42%
    09:00 +36°C° 0 mm 2 mps 731 mmHg 38%
    10:00 +38°C° 0 mm 2 mps 731 mmHg 34%
    11:00 +39°C° 0 mm 2 mps 731 mmHg 30%
    12:00 +42°C° 0 mm 3 mps 730 mmHg 27%
    13:00 +43°C° 0 mm 4 mps 730 mmHg 24%
    14:00 +46°C° 0 mm 5 mps 729 mmHg 21%
    15:00 +46°C° 0 mm 5 mps 729 mmHg 19%
    16:00 +47°C° 0 mm 5 mps 729 mmHg 18%
    17:00 +47°C° 0 mm 5 mps 729 mmHg 16%
    18:00 +46°C° 0.1 mm 5 mps 729 mmHg 18%
    19:00 +44°C° 0.1 mm 4 mps 729 mmHg 19%
    20:00 +42°C° 0.1 mm 4 mps 729 mmHg 21%
    21:00 +40°C° 0.2 mm 6 mps 730 mmHg 27%
    22:00 +38°C° 0.2 mm 7 mps 731 mmHg 34%
    23:00 +35°C° 0.2 mm 8 mps 732 mmHg 41%

    Tomorrow, 23 July, Tuesday

    Time Temperature Precipitation Wind Pressure Humidity
    00:00 +34°C° 1 mm 7 mps 732 mmHg 43%
    01:00 +34°C° 1 mm 5 mps 732 mmHg 45%
    02:00 +33°C° 1 mm 3 mps 732 mmHg 47%
    03:00 +33°C° 0 mm 3 mps 732 mmHg 47%
    04:00 +33°C° 0 mm 4 mps 732 mmHg 47%
    05:00 +33°C° 0 mm 4 mps 731 mmHg 47%
    06:00 +33°C° 0 mm 3 mps 731 mmHg 45%
    07:00 +34°C° 0 mm 2 mps 731 mmHg 43%
    08:00 +34°C° 0 mm 1 mps 731 mmHg 41%
    09:00 +36°C° 0 mm 2 mps 731 mmHg 37%
    10:00 +38°C° 0 mm 2 mps 731 mmHg 33%
    11:00 +39°C° 0 mm 2 mps 731 mmHg 29%
    12:00 +40°C° 0 mm 3 mps 731 mmHg 27%
    13:00 +42°C° 0 mm 3 mps 730 mmHg 25%
    14:00 +43°C° 0 mm 3 mps 730 mmHg 23%
    15:00 +42°C° 0 mm 2 mps 730 mmHg 23%
    16:00 +43°C° 0 mm 1 mps 729 mmHg 22%
    17:00 +43°C° 0 mm 1 mps 729 mmHg 21%
    18:00 +42°C° 0.1 mm 3 mps 730 mmHg 25%
    19:00 +41°C° 0.1 mm 6 mps 730 mmHg 29%
    20:00 +39°C° 0.1 mm 8 mps 731 mmHg 33%
    21:00 +38°C° 0.4 mm 8 mps 731 mmHg 38%
    22:00 +35°C° 0.4 mm 7 mps 731 mmHg 42%
    23:00 +34°C° 0.4 mm 6 mps 732 mmHg 47%

    Day after tomorrow, 24 July, Wednesday

    Time Temperature Precipitation Wind Pressure Humidity
    00:00 +34°C° 0.5 mm 5 mps 732 mmHg 47%
    01:00 +34°C° 0.5 mm 4 mps 731 mmHg 48%
    02:00 +34°C° 0.5 mm 3 mps 731 mmHg 48%
    03:00 +34°C° 0 mm 3 mps 731 mmHg 48%
    04:00 +34°C° 0 mm 4 mps 731 mmHg 47%
    05:00 +34°C° 0 mm 4 mps 731 mmHg 46%
    06:00 +34°C° 0 mm 3 mps 731 mmHg 45%
    07:00 +35°C° 0 mm 3 mps 732 mmHg 43%
    08:00 +35°C° 0 mm 3 mps 732 mmHg 41%
    09:00 +37°C° 0 mm 2 mps 732 mmHg 38%
    10:00 +38°C° 0 mm 2 mps 731 mmHg 34%
    11:00 +39°C° 0 mm 2 mps 731 mmHg 30%
    12:00 +40°C° 0 mm 2 mps 730 mmHg 28%
    13:00 +41°C° 0 mm 1 mps 730 mmHg 26%
    14:00 +42°C° 0 mm 1 mps 729 mmHg 24%
    15:00 +42°C° 0 mm 2 mps 729 mmHg 23%
    16:00 +42°C° 0 mm 2 mps 729 mmHg 22%
    17:00 +43°C° 0 mm 2 mps 728 mmHg 22%
    18:00 +43°C° 0.2 mm 3 mps 729 mmHg 23%
    19:00 +42°C° 0.2 mm 3 mps 729 mmHg 24%
    20:00 +42°C° 0.2 mm 3 mps 729 mmHg 26%
    21:00 +41°C° 0.1 mm 4 mps 729 mmHg 27%
    22:00 +40°C° 0.1 mm 4 mps 730 mmHg 29%
    23:00 +40°C° 0.1 mm 4 mps 730 mmHg 31%

    25 July, Thursday

    Time Temperature Precipitation Wind Pressure Humidity
    00:00 +39°C° 0 mm 5 mps 730 mmHg 35%
    01:00 +37°C° 0 mm 5 mps 730 mmHg 39%
    02:00 +36°C° 0 mm 6 mps 729 mmHg 43%
    03:00 +35°C° 0 mm 5 mps 729 mmHg 44%
    04:00 +35°C° 0 mm 3 mps 729 mmHg 44%
    05:00 +35°C° 0 mm 2 mps 729 mmHg 44%
    06:00 +35°C° 0 mm 2 mps 730 mmHg 43%
    07:00 +36°C° 0 mm 2 mps 730 mmHg 41%
    08:00 +35°C° 0 mm 1 mps 730 mmHg 39%
    09:00 +37°C° 0 mm 2 mps 730 mmHg 37%
    10:00 +38°C° 0 mm 2 mps 730 mmHg 34%
    11:00 +40°C° 0 mm 2 mps 729 mmHg 32%
    12:00 +42°C° 0 mm 3 mps 729 mmHg 29%
    13:00 +43°C° 0 mm 3 mps 729 mmHg 26%
    14:00 +44°C° 0 mm 4 mps 728 mmHg 24%
    15:00 +44°C° 0 mm 4 mps 728 mmHg 23%
    16:00 +45°C° 0 mm 4 mps 728 mmHg 22%
    17:00 +46°C° 0 mm 5 mps 727 mmHg 21%
    18:00 +45°C° 0 mm 5 mps 727 mmHg 21%
    19:00 +44°C° 0 mm 4 mps 728 mmHg 22%
    20:00 +43°C° 0 mm 4 mps 728 mmHg 23%
    21:00 +42°C° 0 mm 5 mps 728 mmHg 25%
    22:00 +41°C° 0 mm 5 mps 728 mmHg 26%
    23:00 +41°C° 0 mm 6 mps 729 mmHg 28%

    26 July, Friday

    Time Temperature Precipitation Wind Pressure Humidity
    00:00 +40°C° 0 mm 5 mps 729 mmHg 30%
    01:00 +39°C° 0 mm 5 mps 729 mmHg 32%
    02:00 +37°C° 0 mm 4 mps 729 mmHg 34%
    03:00 +37°C° 0 mm 4 mps 729 mmHg 35%
    04:00 +36°C° 0 mm 3 mps 729 mmHg 35%
    05:00 +36°C° 0 mm 2 mps 729 mmHg 36%
    06:00 +36°C° 0 mm 2 mps 730 mmHg 35%
    07:00 +37°C° 0 mm 2 mps 730 mmHg 34%
    08:00 +37°C° 0 mm 2 mps 730 mmHg 32%
    09:00 +38°C° 0 mm 2 mps 730 mmHg 30%
    10:00 +40°C° 0 mm 3 mps 730 mmHg 28%
    11:00 +42°C° 0 mm 3 mps 730 mmHg 26%
    12:00 +43°C° 0 mm 3 mps 730 mmHg 24%
    13:00 +44°C° 0 mm 4 mps 729 mmHg 22%
    14:00 +45°C° 0 mm 4 mps 729 mmHg 20%
    15:00 +46°C° 0 mm 5 mps 728 mmHg 19%
    16:00 +47°C° 0 mm 5 mps 728 mmHg 19%
    17:00 +47°C° 0 mm 5 mps 727 mmHg 18%
    18:00 +46°C° 0 mm 5 mps 727 mmHg 19%
    19:00 +45°C° 0 mm 5 mps 727 mmHg 20%
    20:00 +45°C° 0 mm 5 mps 727 mmHg 21%
    21:00 +43°C° 0 mm 5 mps 728 mmHg 23%
    22:00 +42°C° 0 mm 6 mps 728 mmHg 25%
    23:00 +41°C° 0 mm 7 mps 729 mmHg 26%

    27 July, Saturday

    Time Temperature Precipitation Wind Pressure Humidity
    00:00 +40°C° 0 mm 6 mps 729 mmHg 27%
    01:00 +39°C° 0 mm 5 mps 729 mmHg 28%
    02:00 +38°C° 0 mm 4 mps 729 mmHg 29%
    03:00 +37°C° 0 mm 4 mps 729 mmHg 30%
    04:00 +37°C° 0 mm 4 mps 730 mmHg 31%
    05:00 +36°C° 0 mm 4 mps 730 mmHg 32%
    06:00 +36°C° 0 mm 4 mps 730 mmHg 31%
    07:00 +37°C° 0 mm 3 mps 730 mmHg 30%
    08:00 +37°C° 0 mm 3 mps 731 mmHg 29%
    09:00 +38°C° 0 mm 3 mps 731 mmHg 27%
    10:00 +39°C° 0 mm 3 mps 730 mmHg 25%
    11:00 +40°C° 0 mm 3 mps 730 mmHg 24%
    12:00 +43°C° 0 mm 3 mps 730 mmHg 22%
    13:00 +44°C° 0 mm 4 mps 729 mmHg 21%
    14:00 +45°C° 0 mm 4 mps 729 mmHg 19%
    15:00 +45°C° 0 mm 4 mps 728 mmHg 18%
    16:00 +47°C° 0 mm 5 mps 728 mmHg 18%
    17:00 +47°C° 0 mm 6 mps 727 mmHg 17%
    18:00 +47°C° 0 mm 6 mps 728 mmHg 17%
    19:00 +46°C° 0 mm 5 mps 728 mmHg 17%
    20:00 +45°C° 0 mm 5 mps 728 mmHg 17%
    21:00 +43°C° 0 mm 5 mps 728 mmHg 19%
    22:00 +42°C° 0 mm 5 mps 729 mmHg 21%
    23:00 +41°C° 0 mm 4 mps 729 mmHg 23%
    Show more